COSMOS 1275 DEB, 42198

Orbit data source: Space-Track

COSMOS 1275 DEB, 42198 is space debris in LEO originally from a launch on Thu, 04 Jun 1981 UTC launched from the Plesetsk Missile And Space Complex (PKMTR). Debris objects in space refer to the collection of defunct objects orbiting the Earth. Examples of debris include non-operational satellites, rocket bodies, and fragments generated from explosions, collisions, or faulty payload assembly.

Loading next visibility...
Identifier
42198, 1981-053TN
Orbit
LEO
Country
Flag of CISCIS
Related business
Manufacturer
Unknown
Mission
Spacecraft
Bus & Motor
Unknown
Mass
Unknown
Launch date (UTC)
1981-06-04 (45 years ago)
Launch vehicle
Unknown
Launch site
Plesetsk Missile And Space Complex (PKMTR)
Object type
Payload
Rocket body
Debris
Shape & HBR
Unknown shape, 0.1 m
Radar Cross Section
Small (<0.1 m²)

Expand to show TLE details & history
Last TLE update: 6 days ago

TLE from 6 days ago
0 COSMOS 1275 DEB
1 42198U 81053TN  26033.68126677  .00001510  00000-0  11874-2 0  9998
2 42198  82.8030  21.4340 0040333  26.2956 334.0244 13.90837466618006
Epoch: 2026-02-02T16:21Z
TLE epoch observation values (Epoch: 2026-02-02T16:21:01.448Z)
Latitude
-0.00005°
Longitude
3.3049°
Altitude
902.151 km
Speed
7.414 km/s
True Right ascension
01h 25m 44s
True Declination
0° 00' 00"
Sunlit
Object was in daylight at epoch
Visualization orbit readout
Latitude
Unknown
Longitude
Unknown
Altitude
Unknown
Speed
Unknown
Apparent Right ascension
Unknown
Apparent Declination
Unknown
Sunlit
N/A
Visualization observer readout
Local Sidereal Time
07:27:05
Azimuth
Unknown
Elevation
Unknown
Doppler factor
Unknown
Orbital elements
Apogee altitude
952.277 km
Perigee altitude
893.383 km
Semi-major axis
7,300.967 km
Eccentricity
0.00403
Inclination
82.803°
RAAN
21.434°
Arg. of periapsis
26.2956°
True anomaly
333.82105°
Mean anomaly
334.0244°
Eccentric anomaly
333.92282°
Mean motion
3.47915 °/min
Orbital period
103.47 mins
BSTAR
0.0011874
Loading maneuver chart data...
Computing Atmospheric mass density...

Documentation

Showing up to 5 results
|